sat.trackr.live / text

‹ back to catalog

STARLINK-31573

NORAD 59334 · 2024-057Q

PAYLOAD ACTIVE UNKNOWN

§ Identity

Operator
Country
US
Launch date
2024-03-25
Launch site
AFETR
Launch vehicle
Mass (kg)
RCS (m²)

Purposes: comms

External: N2YO · Heavens-Above · Gunter

§ Orbital elements

Epoch: 2026-05-25T04:33:03.250944Z

Period
94.27 min
Inclination
43.0025°
Eccentricity
0.0001137
Mean motion
15.27574153 rev/d
Perigee alt
482.3 km
Apogee alt
483.8 km
Semi-major
6,861.2 km
B*
1.4035e-5
RAAN
114.6156°
Arg perigee
269.9842°
Mean anomaly
90.0879°
Rev number
12,154

§ Raw data

STARLINK-315731 59334U 24057Q   26145.18962096  .00000124  00000+0  14035-4 0  99942 59334  43.0025 114.6156 0001137 269.9842  90.0879 15.27574153121542

JSON: /api/v1/satellites/59334 · /tle

For live sub-satellite position, see the globe view (requires WebGL).

§ Visibility from observer

Set your observer location to see the next 7 days of passes ≥ 10°. The values pass through the URL so the page stays shareable.

No JS? Fill the form by hand. The geolocation button needs JavaScript.